User: anonymous   Login
Location: Unspecified
(0.0000°N, 0.0000°E)
Time: 11:32:03
(UTC+00:00)
Language:

SOMP - Orbit

View from above orbital plane
View from above orbital plane
View from above satellite
View from above satellite

Ground track
Ground track

The orbit data is extracted from the following two-line orbital elements,

1 39135U 13015F   17264.46383187 +.00001376 +00000-0 +80899-4 0  9996
2 39135 064.8685 285.5937 0034305 268.4409 091.2787 15.15855812243517
Epoch (UTC): 21 September 2017 11:07:55
Eccentricity: 0.0034305
inclination: 64.8685°
perigee height: 495 km
apogee height: 542 km
right ascension of ascending node: 285.5937°
argument of perigee: 268.4409°
revolutions per day: 15.15855812
mean anomaly at epoch: 91.2787°
orbit number at epoch: 24351

The dashed part of the orbit path shows where the satellite is in the earth's shadow,  

DLR